Leesburg, FL

11:16 AM EDT on May 27, 2017 (GMT -0400)
Leesburg Regional

Weather History for KLEE - July, 2013

Change the Weather History Date:

Friday, July 5, 2013

  Actual Average Record
Temperature  
Mean Temperature 81 °F -  
Max Temperature 89 °F 91 °F 97 °F (1969)
Min Temperature 73 °F 71 °F 65 °F (1984)
Cooling Degree Days 16    
Growing Degree Days 31 (Base 50)    
Moisture  
Dew Point 73 °F    
Average Humidity 81    
Maximum Humidity 94    
Minimum Humidity 52    
Precipitation  
Precipitation 0.00 in - - ()
Sea Level Pressure  
Sea Level Pressure 30.15 in    
Wind  
Wind Speed 5 mph (ESE)    
Max Wind Speed 16 mph    
Max Gust Speed 26 mph    
Visibility 9 miles    
Events      
Averages and records for this station are not official NWS values.
T = Trace of Precipitation, MM = Missing Value Source: NWS Daily Summary

Daily Weather History Graph

Daily Weather History Graph

Search for Another Location

Airport or City:

Trip Planner

Search our weather history database for the weather conditions in past years. The results will help you decide how hot, cold, wet, or windy it might be!

Date:

Astronomy

Jul. 05, 2013 Rise Set
Actual Time 6:34 AM EDT 8:29 PM EDT
Civil Twilight 6:07 AM EDT 8:56 PM EDT
Nautical Twilight 5:35 AM EDT 9:28 PM EDT
Astronomical Twilight 5:00 AM EDT 10:02 PM EDT
Moon 4:28 AM EDT (7/5) 6:27 PM EDT (7/5)
Length of Visible Light 14h 48m
Length of Day
13h 55m
Waning Crescent, 6% of the Moon is Illuminated
Jul 5
Waning Crescent
Jul 8
New
Jul 15
First Quarter
Jul 22
Full
Jul 29
Last Quarter

Hourly Weather History & Observations

Time (EDT) Temp. Heat Index Dew Point Humidity Pressure Visibility Wind Dir Wind Speed Gust Speed Precip Events Conditions
12:11 AM 75.2 °F - 73.4 °F 94% 30.18 in 9.0 mi ENE 4.6 mph - N/A   Overcast
12:25 AM 75.2 °F - 73.4 °F 94% 30.18 in 8.0 mi Calm Calm - N/A   Scattered Clouds
12:53 AM 75.0 °F - 73.0 °F 94% 30.18 in 8.0 mi ENE 4.6 mph - N/A   Clear
1:22 AM 75.2 °F - 73.4 °F 94% 30.18 in 8.0 mi NE 3.5 mph - N/A   Mostly Cloudy
1:42 AM 75.2 °F - 71.6 °F 89% 30.17 in 9.0 mi ENE 3.5 mph - N/A   Scattered Clouds
1:53 AM 75.0 °F - 72.0 °F 90% 30.16 in 9.0 mi East 4.6 mph - N/A   Clear
2:53 AM 73.9 °F - 72.0 °F 93% 30.14 in 8.0 mi Calm Calm - N/A   Clear
3:53 AM 75.0 °F - 73.0 °F 94% 30.13 in 6.0 mi ESE 4.6 mph - N/A   Clear
4:53 AM 75.9 °F - 73.9 °F 94% 30.13 in 7.0 mi East 3.5 mph - N/A   Clear
5:53 AM 75.9 °F - 73.0 °F 91% 30.12 in 8.0 mi East 4.6 mph - N/A   Clear
6:53 AM 75.9 °F - 73.0 °F 91% 30.14 in 8.0 mi Calm Calm - N/A   Clear
7:53 AM 78.1 °F - 75.0 °F 90% 30.16 in 10.0 mi ESE 10.4 mph - N/A   Clear
8:53 AM 81.0 °F 87.3 °F 75.9 °F 85% 30.16 in 10.0 mi ESE 13.8 mph - N/A   Clear
9:53 AM 84.0 °F 92.6 °F 75.9 °F 76% 30.16 in 10.0 mi ESE 11.5 mph - N/A   Partly Cloudy
10:53 AM 82.9 °F 90.2 °F 75.0 °F 77% 30.17 in 10.0 mi SE 9.2 mph - N/A   Scattered Clouds
11:53 AM 87.1 °F 96.3 °F 75.0 °F 67% 30.16 in 10.0 mi SSE 8.1 mph - N/A   Partly Cloudy
12:53 PM 82.0 °F 87.9 °F 73.9 °F 76% 30.16 in 10.0 mi East 10.4 mph 18.4 mph N/A   Scattered Clouds
1:53 PM 87.1 °F 95.4 °F 73.9 °F 65% 30.15 in 10.0 mi East 10.4 mph - 0.00 in   Clear
2:53 PM 86.0 °F 93.8 °F 73.9 °F 67% 30.13 in 10.0 mi ESE 9.2 mph - N/A   Clear
3:53 PM 89.1 °F 93.7 °F 69.1 °F 52% 30.11 in 10.0 mi SE 16.1 mph 26.5 mph N/A   Clear
4:53 PM 88.0 °F 92.9 °F 70.0 °F 55% 30.09 in 10.0 mi SE 10.4 mph - N/A   Clear
5:53 PM 87.1 °F 92.8 °F 71.1 °F 59% 30.09 in 10.0 mi SE 13.8 mph - N/A   Overcast
6:53 PM 81.0 °F 85.8 °F 73.0 °F 77% 30.11 in 10.0 mi SW 5.8 mph - N/A   Scattered Clouds
7:53 PM 80.1 °F 84.5 °F 73.9 °F 81% 30.12 in 10.0 mi SW 4.6 mph - N/A   Partly Cloudy
8:53 PM 79.0 °F - 75.0 °F 88% 30.14 in 9.0 mi Calm Calm - N/A   Clear
9:53 PM 79.0 °F - 75.0 °F 88% 30.14 in 10.0 mi Calm Calm - N/A   Scattered Clouds
10:53 PM 81.0 °F 85.8 °F 73.0 °F 77% 30.16 in 10.0 mi SE 8.1 mph - N/A   Mostly Cloudy
11:53 PM 80.1 °F 84.2 °F 73.0 °F 79% 30.15 in 10.0 mi ESE 8.1 mph - N/A   Clear